Tracking 19247 objects as of 24-Sep-2018
HD Live streaming from Space Station
objects crossing your sky now

FENGYUN 1C DEB

Track FENGYUN 1C DEB now!
10-day predictions


NORAD ID: 32173
Int'l Code: 1999-025CTT
Perigee: 770.6 km
Apogee: 878.5 km
Inclination: 99.6 °
Period: 101.2 minutes
Semi major axis: 7195 km
RCS: 0.009 m2 (small)
Launch date: May 10, 1999
Source: People's Republic of China (PRC)
Launch site: Taiyaun Space Center, China (TSC)

Note: This is SATELLITE DEBRIS
aabbcc
Your satellite tracking list
Your tracking list is empty




NASA's NSSDC Master Catalog

Two Line Element Set (TLE):
1 32173U 99025CTT 18266.86070566 +.00000894 +00000-0 +41288-3 0  9999
2 32173 099.6214 273.3481 0075027 073.6606 287.2802 14.22352902578410
Source of the keplerian elements: AFSPC